Погода в Пирогово

Россия / Белгородская область     50°36′47″N   39°01′18″E
темп.,
°C
ветер,
м/с
пор.,
м/с
влажн.,
%
обл.,
%
осадки,
мм/ч
давл.,
гПа
погр.,
м
15 мая, сб
сб1500:00+17ююв41190100 0.0 1010210
03:00+16ююз3491100 0.0 101170
06:00+16юз2285100 0.0 101135
09:00+20юз3462100 0.0 1013441
12:00+22юз34505 0.0 1014878
15:00+23ююз454887 0.0 10131592
18:00+22ю35610 0.0 1013246
21:00+17юз22752 0.0 101411
16 мая, вс
вс1600:00+16зсз117797 0.0 101411
03:00+14св11780 0.0 101411
06:00+16всв117874 0.0 101518
09:00+21в336210 0.0 1014494
12:00+24всв33515 0.0 10141191
15:00+26всв4553100 0.0 10121617
18:00+23всв3572100 1.5 1011165
21:00+18в347257 1.5 101145
17 мая, пн
пн1700:00+16в497318 0.0 1011121
03:00+15в5117298 0.0 1010153
06:00+15вюв41273100 0.0 1010213
09:00+22вюв717555 0.0 1009646
12:00+26вюв915476 0.0 10081659
15:00+27юв815495 0.0 10081850
18:00+24ююв511588 0.0 1007476
21:00+19юв47715 0.0 1008111
18 мая, вт
вт1800:00+17вюв347915 0.0 100748
03:00+16ю339029 0.0 100852
06:00+16ююз489028 0.1 1009308
09:00+19ююз5770100 0.1 1009623
12:00+22ююз5660100 0.0 10091064
15:00+22ююз46569 0.0 10091500
18:00+21ю467061 0.4 1008767
21:00+16ююв3586100 1.1 100980
19 мая, ср
ср1900:00+15ююв49908 0.0 1008176
03:00+13юв499529 0.0 1008190
06:00+14ю6129499 0.1 1007486
09:00+15ю6128972 2.4 1007799
12:00+16юз8128496 2.1 10081095
15:00+18зюз81059100 2.4 10101684
18:00+16зюз4770100 0.1 1011751
21:00+12юз23905 0.7 101329